[Iaude] MPEC V114: 2023 VL3 [a=0.88,e=0.21,i=15.5,H=21.7]
    mpec at marsden.cfa.harvard.edu 
    mpec at marsden.cfa.harvard.edu
       
    Wed Nov  8 06:54:52 EST 2023
    
    
  
M.P.E.C. 2023-V114                             Issued 2023 November 8, 11:46 UT
     The Minor Planet Electronic Circulars contain information on unusual
         minor planets, routine data on comets and natural satellites,
         and occasional editorial announcements.  They are published
    on behalf of Division F of the International Astronomical Union by the
          Minor Planet Center, Smithsonian Astrophysical Observatory,
                          Cambridge, MA 02138, U.S.A.
			  
             Prepared using the Tamkin Foundation Computer Network
                              MPC at CFA.HARVARD.EDU
            URL https://www.minorplanetcenter.net/    ISSN 1523-6714
                                    2023 VL3                                    
Observations:
     K23V03L*1C2023 11 02.10294018 31 15.384+42 09 43.38         20.84GVEV114G96
     K23V03L 1C2023 11 02.10809118 31 17.504+42 09 56.45         20.38GVEV114G96
     K23V03L 1C2023 11 02.11324918 31 19.798+42 10 09.77         21.60GVEV114G96
     K23V03L 1C2023 11 02.11840018 31 21.760+42 10 22.58         20.11GVEV114G96
     K23V03L KC2023 11 03.00261718 37 36.30 +42 48 27.5          21.3 VVEV114H21
     K23V03L KC2023 11 03.01666618 37 41.87 +42 49 00.2          20.9 VVEV114H21
     K23V03L KC2023 11 03.12349218 38 25.540+42 53 24.00         20.49GVEV114I52
     K23V03L KC2023 11 03.12490718 38 26.070+42 53 27.10         20.73GVEV114I52
     K23V03L KC2023 11 04.12330218 45 17.320+43 32 42.40               VEV114I52
     K23V03L KC2023 11 04.12478918 45 17.910+43 32 46.30         20.62GVEV114I52
     K23V03L KC2023 11 08.06653519 10 49.910+45 38 43.60         21.28GVEV114I52
     K23V03L KC2023 11 08.06980819 10 51.090+45 38 49.20               VEV114I52
     K23V03L KC2023 11 08.07895119 10 54.310+45 39 03.10               VEV114I52
     K23V03L KC2023 11 08.08540719 10 56.530+45 39 12.50               VEV114I52
Observer details:
G96 Mt. Lemmon Survey.  Observer J. B. Fazekas.  Measurers E. C. Beshore, D.
    Fay, J. B. Fazekas, D. C. Fuls, A. R. Gibbs, A. D. Grauer, H. Groeller, J.
    K. Hogan, R. A. Kowalski, S. M. Larson, G. J. Leonard, D. Rankin, R. L.
    Seaman, F. C. Shelly, K. W. Wierzchos.  1.5-m reflector + 10K CCD.
H21 Astronomical Research Observatory, Westfield.  Observer R. Holmes.
    Measurers T. Linder, R. Holmes, L. Horn.  0.76-m f/3.0 astrograph + CCD.
I52 Steward Observatory, Mt. Lemmon Station.  Observers D. Rankin, H.
    Groeller.  Measurers E. C. Beshore, D. Fay, J. B. Fazekas, D. C. Fuls, A.
    R. Gibbs, A. D. Grauer, H. Groeller, J. K. Hogan, R. A. Kowalski, S. M.
    Larson, G. J. Leonard, D. Rankin, R. L. Seaman, F. C. Shelly, K. W.
    Wierzchos.  1.0-m prime focus + CCD.
Orbital elements:
2023 VL3                                                 Earth MOID = 0.1123 AU
Epoch 2023 Sept. 13.0 TT = JDT 2460200.5                Veres                   
M  50.58278              (2000.0)            P               Q                  
n   1.19044801     Peri.  264.99585     -0.07529044     +0.99715612             
a   0.8817168      Node     0.71207     -0.77590713     -0.05649393             
e   0.2111245      Incl.   15.48783     -0.62633814     -0.04988084             
P   0.83           H   21.77          G   0.15           U   6                  
Residuals in seconds of arc
231102 G96  0.1-  0.1-    231103 H21  0.0   0.1+    231108 I52  0.1-  0.6-
231102 G96  0.1-  0.1-    231103 I52  0.3+  0.1+    231108 I52  0.2+  0.1+
231102 G96 (1.9+  0.2+)   231103 I52  0.1-  0.1-    231108 I52  0.3+  0.2+
231102 G96  0.1+  0.0     231104 I52  0.1-  0.3-    231108 I52  0.2-  0.1-
231103 H21 (0.5+  0.8+)   231104 I52  0.0   0.4+
Ephemeris:
2023 VL3                 a,e,i = 0.88, 0.21, 15                  q = 0.6956
Date    TT    R. A. (2000) Decl.     Delta      r    Elong.  Phase     V
2023 10 09    15 13 57.4 +02 03 22   0.1339  0.8934    35.4   139.6    24.0
...
2023 10 24    17 20 11.9 +32 12 13   0.1386  0.9476    66.2   106.1    21.3
...
2023 11 01    18 23 21.5 +41 18 03   0.1632  0.9733    78.5    92.1    21.0
...
2023 11 07    19 04 11.6 +45 08 41   0.1855  0.9908    84.5    84.8    21.1
2023 11 08    19 10 27.0 +45 36 49   0.1894  0.9936    85.3    83.7    21.1
2023 11 09    19 16 33.5 +46 02 37   0.1932  0.9963    86.1    82.8    21.1
...
2023 11 15    19 50 23.4 +47 58 02   0.2167  1.0117    89.7    77.9    21.2
...
2023 11 23    20 29 26.2 +49 22 47   0.2475  1.0294    92.7    73.4    21.4
...
2023 12 08    21 31 27.7 +50 21 23   0.3009  1.0539    94.8    68.7    21.7
M. P. C. Staff               (C) Copyright 2023 MPC           M.P.E.C. 2023-V114
    
    
More information about the Iaude
mailing list